Voltar ao catálogo

QIANFAN-39

AtivoComunicaçõesPO
NORAD 62240·PAYLOAD·🇨🇳 China

Lançado Dec 5, 2024 de Taiyuan Satellite Launch Center

Loading…

Próximas Passagens (próximas 24 horas)

TLE

AtualizadoSource: Space-Track

Época: Sep 14, 2026, 22:15 UTC

1 62240U 24232D   26257.92768399  .00000379  00000-0  15419-3 0  9994
2 62240  89.0140   5.8735 0014047 249.8350 110.1332 14.25558763140735

Acompanhe QIANFAN-39 em tempo real com AllMySat

Download on the App Store